Hourly Data Report for November 10, 2004

TORONTO CITY
ONTARIO

43°40'00.000" N
79°24'00.000" W
112.50 m
6158355
71508
XTO

Download Data

Hourly Data (November 2004)
Hourly Data Report for November 10, 2004
TIME
LST
Temp Definition
°C
Dew Point Definition
°C
Rel Hum Definition
%
Precip. Amount Definition
mm

Wind Dir Definition
10's deg

Wind Spd Definition
km/h
Visibility Definition
km
Stn Press Definition
kPa
Hmdx Definition


Wind Chill Definition


Weather Definition


00:00 2.9 -2.7 67   LegendMM LegendMM LegendMM 101.64     LegendNANA
01:00 3.5 -1.6 69   LegendMM LegendMM LegendMM 101.58     LegendNANA
02:00 4.1 -1.3 68   LegendMM LegendMM LegendMM 101.51     LegendNANA
03:00 4.4 -0.5 70   LegendMM LegendMM LegendMM 101.48     LegendNANA
04:00 4.8 -0.1 71   LegendMM LegendMM LegendMM 101.46     LegendNANA
05:00 5.1 0.4 72   LegendMM LegendMM LegendMM 101.39     LegendNANA
06:00 5.4 0.8 72   LegendMM LegendMM LegendMM 101.34     LegendNANA
07:00 5.2 1.4 76   LegendMM LegendMM LegendMM 101.31     LegendNANA
08:00 6.3 2.1 74   LegendMM LegendMM LegendMM 101.25     LegendNANA
09:00 7.8 2.5 69   LegendMM LegendMM LegendMM 101.19     LegendNANA
10:00 8.6 3.0 68   LegendMM LegendMM LegendMM 101.10     LegendNANA
11:00 9.4 3.6 67   LegendMM LegendMM LegendMM 101.02     LegendNANA
12:00 9.6 3.3 65   LegendMM LegendMM LegendMM 100.84     LegendNANA
13:00 10.1 3.8 65   LegendMM LegendMM LegendMM 100.77     LegendNANA
14:00 10.8 4.2 64   LegendMM LegendMM LegendMM 100.63     LegendNANA
15:00 11.1 4.3 63   LegendMM LegendMM LegendMM 100.58     LegendNANA
16:00 11.4 4.9 64   LegendMM LegendMM LegendMM 100.50     LegendNANA
17:00 11.6 4.9 63   LegendMM LegendMM LegendMM 100.45     LegendNANA
18:00 11.8 4.9 63   LegendMM LegendMM LegendMM 100.48     LegendNANA
19:00 10.8 5.4 69   LegendMM LegendMM LegendMM 100.48     LegendNANA
20:00 11.9 4.2 59   LegendMM LegendMM LegendMM 100.43     LegendNANA
21:00 11.7 4.8 63   LegendMM LegendMM LegendMM 100.38     LegendNANA
22:00 11.5 5.4 66   LegendMM LegendMM LegendMM 100.33     LegendNANA
23:00 11.5 5.3 66   LegendMM LegendMM LegendMM 100.33     LegendNANA

Notes on Data Quality.

Legend

  • E = Estimated
  • M = Missing
  • NA = Not Available*
  • [empty] = Indicates an unobserved value
Date modified: